Regional Weather Roundup
Issued by NWS

Home | Current Version | Previous Version | Graphics & Text | Print | Product List | Glossary On
Versions: 1 2 3 4 5 6 7 8 9 10 11 12 13 14 15 16 17 18 19 20 21 22 23 24 25 26 27 28 29 30 31 32 33 34 35 36 37 38 39 40 41 42 43 44 45 46 47 48 49 50
000
ASUS43 KDMX 181807
RWRIA

WEATHER ROUNDUP FOR IOWA
NATIONAL WEATHER SERVICE DES MOINES IA
100 PM CDT SAT APR 18 2015

NOTE: "FAIR" INDICATES FEW OR NO CLOUDS BELOW 12,000 FEET WITH NO
SIGNIFICANT WEATHER AND/OR OBSTRUCTIONS TO VISIBILITY.

* - THESE STATIONS ARE NOT NWS STATIONS...THUS NOT UNDER NWS
QUALITY CONTROL.  THEY ALSO DO NOT REPORT WEATHER SUCH
AS PRECIPITATION OR FOG.

IAZ001>003-012>014-020>022-031>034-043>046-181900-
   NORTHWEST IOWA

CITY           SKY/WX    TMP DP  RH WIND       PRES   REMARKS
CARROLL *      PTSUNNY   64  57  77 E17       29.90F
CHEROKEE *     HVY RAIN  57  57 100 E8        29.94S
DENISON *      HVY RAIN  59  59 100 W9        29.93R
LE MARS *      LGT RAIN  59  57  94 S8        29.96R
ORANGE CITY *  RAIN     N/A N/A N/A SE8       29.94S
SHELDON *      PTSUNNY   64  52  63 SE18      29.92F
SIOUX CITY     RAIN      59  56  89 E10       29.91F FOG
6HR MIN TEMP:  56; 6HR MAX TEMP:  60; 6HR PCP:  0.42;

SPENCER        CLOUDY    63  53  70 SE22      29.95F
6HR MIN TEMP:  55; 6HR MAX TEMP:  69;

STORM LAKE *   CLOUDY    59  55  88 E14       29.93F
$$

IAZ055>058-069>071-079>083-090>094-181900-
   SOUTHWEST IOWA

CITY           SKY/WX    TMP DP  RH WIND       PRES   REMARKS
ATLANTIC *     RAIN      61  61 100 W8G14     29.93S
AUDUBON *      MOSUNNY   66  59  77 E9        29.91F
CLARINDA *     RAIN      61  61 100 SW5       29.95S
COUNCIL BLFS * DRIZZLE   61  61 100 E9        29.91F
CRESTON *      CLOUDY    63  59  88 E7        29.90F
HARLAN  *      LGT RAIN  59  59 100 CALM      29.96F
LAMONI         CLOUDY    71  60  68 S16       29.88F
6HR MIN TEMP:  59; 6HR MAX TEMP:  73; 6HR PCP:  0.06;

RED OAK *      LGT RAIN  61  61 100 CALM      29.93S
SHENANDOAH *   RAIN      61  61 100 SE6       29.94R
$$

IAZ047>049-059>061-072>074-084-181900-
   CENTRAL IOWA

CITY           SKY/WX    TMP DP  RH WIND       PRES   REMARKS
AMES           PTSUNNY   71  59  65 E7        29.91F
6HR MIN TEMP:  56; 6HR MAX TEMP:  71; 6HR PCP:  0.58;

ANKENY *       CLOUDY    72  55  56 SE12G22   29.90F
CHARITON *     PTSUNNY   70  55  60 SE22G32   29.91F
DES MOINES     CLOUDY    74  56  53 SE14G22   29.90F
6HR MIN TEMP:  62; 6HR MAX TEMP:  74; 6HR PCP:  0.01;

GRINNELL*      CLOUDY    73  54  49 SE18      29.94F
KNOXVILLE *    PTSUNNY   73  57  56 SE17G23   29.90F
MARSHALLTOWN   PTSUNNY   76  55  48 SE20G25   29.93F
6HR MIN TEMP:  57; 6HR MAX TEMP:  78;

PELLA *        CLOUDY    73  59  61 SE15G21   29.93F
PERRY *        PTSUNNY   68  57  68 E12G18    29.91F
$$

IAZ004>006-015-016-023>025-035-036-181900-
   NORTH CENTRAL IOWA

CITY           SKY/WX    TMP DP  RH WIND       PRES   REMARKS
ALGONA *       LGT RAIN  55  52  88 SE9       29.99S
CLARION *      PTSUNNY   61  52  72 N7        29.96F
ESTHERVILLE    CLOUDY    65  45  48 SE24      29.96F
6HR MIN TEMP:  50; 6HR MAX TEMP:  70;

FORT DODGE *   CLOUDY    55  52  88 NE7       29.95F
MASON CITY     CLOUDY    71  40  32 SE14      29.98F
6HR MIN TEMP:  47; 6HR MAX TEMP:  71;

FOREST CITY *  LGT RAIN  64  36  34 E9        29.98F
IOWA FALLS *     N/A     75  50  41 SE16G24   29.94F
$$

IAZ007>011-017>019-026>030-037>042-050>054-066-181900-
   NORTHEAST IOWA

CITY           SKY/WX    TMP DP  RH WIND       PRES   REMARKS
CEDAR RAPIDS   CLOUDY    76  51  41 SE16      29.96F
6HR MIN TEMP:  54; 6HR MAX TEMP:  76;

CHARLES CITY * PTSUNNY   75  43  31 SE15G22   29.97F
CLINTON *      PTSUNNY   75  48  38 E21G28    30.02F
DECORAH *      SUNNY     73  39  29 SE9G24    30.00F
DUBUQUE        MOSUNNY   72  43  35 SE17G25   30.02F
6HR MIN TEMP:  56; 6HR MAX TEMP:  74;

MONTICELLO *   SUNNY     77  48  36 E18G25    29.98F
OELWEIN *      SUNNY     77  46  33 SE18G28   29.98F
WATERLOO       PTSUNNY   79  51  37 SE17      29.94F
6HR MIN TEMP:  53; 6HR MAX TEMP:  79;

$$

IAZ064-065-067-068-078-181900-
   EAST CENTRAL IOWA

CITY           SKY/WX    TMP DP  RH WIND       PRES   REMARKS
DAVENPORT      CLOUDY    76  52  43 SE16      30.00F
6HR MIN TEMP:  53; 6HR MAX TEMP:  78;

IOWA CITY      CLOUDY    74  55  51 SE12      29.98F
6HR MIN TEMP:  51; 6HR MAX TEMP:  76;

MT. PLEASANT * PTSUNNY   76  55  47 SE14      29.96F
MUSCATINE *    MOSUNNY   77  55  47 SE13      29.97F
QUAD CITIES    CLOUDY    76  53  44 SE9       29.98F
6HR MIN TEMP:  49; 6HR MAX TEMP:  77;

$$

IAZ062-063-075>077-085>089-095>099-181900-
   SOUTHEAST IOWA

CITY           SKY/WX    TMP DP  RH WIND       PRES   REMARKS
BURLINGTON     PTSUNNY   77  56  48 SE14      29.96F
6HR MIN TEMP:  59; 6HR MAX TEMP:  77;

FAIRFIELD *    MOSUNNY   75  54  46 SE16G26   29.94F
FORT MADISON * MOSUNNY   79  55  44 S15G22    29.96F
KEOKUK *       SUNNY     77  55  47 S15       29.95F
OSKALOOSA *    PTSUNNY   75  53  45 S21       29.93F
CENTERVILLE *  LGT RAIN  64  59  82 SE10      29.94F
OTTUMWA        CLOUDY    75  54  47 SE15      29.93F
6HR MIN TEMP:  56; 6HR MAX TEMP:  75;

WASHINGTON *   MOSUNNY   77  55  47 SE14G22   29.95F
$$

ABBREVIATIONS USED IN REMARKS
   TC - TEMPERATURES IN CELSIUS
  WCI - WIND CHILL INDEX
   HX - HEAT INDEX
  VSB - VISIBILITY
$$



USA.gov is the U.S. government's official web portal to all federal, state and local government web resources and services.